Chatham, MA

10:05 PM EST on December 07, 2019 (GMT -0500)
Chatham Municipal

Weather History for KCQX - October, 2019

Change the Weather History Date:

Tuesday, October 8, 2019

  Actual Average Record
Temperature  
Mean Temperature 62 °F -  
Max Temperature 66 °F 61 °F 73 °F (2005)
Min Temperature 59 °F 46 °F 35 °F (1999)
Degree Days  
Heating Degree Days 2    
Growing Degree Days 12 (Base 50)    
Moisture  
Dew Point 57 °F    
Average Humidity 90    
Maximum Humidity 97    
Minimum Humidity 72    
Precipitation  
Precipitation 0.40 in - - ()
Sea Level Pressure  
Sea Level Pressure 30.22 in    
Wind  
Wind Speed 6 mph (NE)    
Max Wind Speed 14 mph    
Max Gust Speed 22 mph    
Visibility 7 miles    
Events Rain    
Averages and records for this station are not official NWS values.
T = Trace of Precipitation, MM = Missing Value Source: NWS Daily Summary

Daily Weather History Graph

Daily Weather History Graph

Search for Another Location

Airport or City:

Astronomy

Oct. 08, 2019 Rise Set
Actual Time 6:44 AM EDT 6:10 PM EDT
Civil Twilight 6:16 AM EDT 6:38 PM EDT
Nautical Twilight 5:44 AM EDT 7:10 PM EDT
Astronomical Twilight 5:11 AM EDT 7:42 PM EDT
Moon 4:12 PM EDT 1:24 AM EDT
Length of Visible Light 12h 21m
Length of Day
11h 26m
Waxing Gibbous, 77% of the Moon is Illuminated
Oct 8
Waxing Gibbous
Oct 13
Full
Oct 21
Last Quarter
Oct 27
New
Nov 4
First Quarter

Hourly Weather History & Observations

Time (EDT) Temp. Dew Point Humidity Pressure Visibility Wind Dir Wind Speed Gust Speed Precip Events Conditions
12:52 AM 66.0 °F 64.0 °F 93% 30.16 in 10.0 mi West 3.5 mph - 0.00 in Rain Light Rain
1:08 AM 66.0 °F 64.0 °F 93% 30.17 in 3.0 mi Variable 5.8 mph - 0.01 in Rain Light Rain
1:12 AM 64.9 °F 64.0 °F 97% 30.17 in 2.0 mi Variable 3.5 mph - 0.03 in Rain Rain
1:15 AM 64.9 °F 63.0 °F 93% 30.17 in 1.8 mi Variable 4.6 mph - 0.04 in Rain Rain
1:33 AM 63.0 °F 62.1 °F 97% 30.18 in 2.0 mi Variable 6.9 mph - 0.15 in Rain Rain
1:44 AM 61.0 °F 60.1 °F 97% 30.18 in 3.0 mi Variable 4.6 mph - 0.16 in Rain Light Rain
1:52 AM 60.1 °F 59.0 °F 96% 30.19 in 3.0 mi Variable 3.5 mph - 0.18 in Rain Light Rain
1:54 AM 60.1 °F 59.0 °F 96% 30.19 in 2.5 mi Variable 4.6 mph - 0.01 in Rain Rain
2:04 AM 60.1 °F 59.0 °F 96% 30.19 in 1.8 mi North 5.8 mph - 0.07 in Rain Heavy Rain
2:12 AM 59.0 °F 57.9 °F 96% 30.19 in 3.0 mi North 8.1 mph - 0.08 in Rain Light Rain
2:29 AM 59.0 °F 57.9 °F 96% 30.18 in 2.0 mi NNE 5.8 mph - 0.12 in Rain Rain
2:52 AM 59.0 °F 57.9 °F 96% 30.20 in 3.0 mi NNE 8.1 mph - 0.15 in Rain Rain
2:59 AM 59.0 °F 57.9 °F 96% 30.19 in 2.5 mi NNE 8.1 mph - 0.00 in Rain Light Rain
3:07 AM 59.0 °F 57.9 °F 96% 30.19 in 3.0 mi Variable 6.9 mph - 0.01 in Rain Light Rain
3:19 AM 59.0 °F 57.9 °F 96% 30.19 in 3.0 mi Variable 4.6 mph - 0.03 in Rain Light Rain
3:52 AM 59.0 °F 57.9 °F 96% 30.19 in 9.0 mi NNE 5.8 mph - 0.03 in   Overcast
4:08 AM 59.0 °F 57.9 °F 96% 30.19 in 10.0 mi NNE 6.9 mph - N/A   Overcast
4:20 AM 59.0 °F 57.9 °F 96% 30.19 in 10.0 mi NE 4.6 mph - N/A   Overcast
4:28 AM 59.0 °F 57.9 °F 96% 30.18 in 10.0 mi Variable 5.8 mph - N/A   Overcast
5:16 AM 59.0 °F 57.9 °F 96% 30.20 in 10.0 mi NE 4.6 mph - N/A   Overcast
5:52 AM 59.0 °F 57.9 °F 96% 30.22 in 4.0 mi East 3.5 mph - 0.01 in Rain Light Rain
6:09 AM 59.0 °F 57.9 °F 96% 30.21 in 2.5 mi East 4.6 mph - 0.02 in Rain Light Rain
6:48 AM 59.0 °F 57.2 °F 94% 30.22 in 6.0 mi ENE 4.6 mph - 0.03 in Rain Light Rain
6:52 AM 59.0 °F 57.9 °F 96% 30.23 in 6.0 mi ENE 4.6 mph - 0.03 in Rain Light Rain
7:02 AM 59.0 °F 57.9 °F 96% 30.23 in 8.0 mi NNE 3.5 mph - 0.00 in   Overcast
7:19 AM 59.0 °F 57.9 °F 96% 30.22 in 10.0 mi ENE 5.8 mph - 0.00 in   Overcast
7:52 AM 59.0 °F 57.9 °F 96% 30.24 in 10.0 mi Variable 3.5 mph - 0.00 in   Overcast
8:52 AM 60.1 °F 57.9 °F 93% 30.24 in 10.0 mi NE 5.8 mph - N/A   Overcast
9:07 AM 60.1 °F 57.9 °F 93% 30.24 in 10.0 mi NE 4.6 mph - N/A   Overcast
9:52 AM 60.1 °F 59.0 °F 96% 30.25 in 10.0 mi Variable 4.6 mph - N/A   Overcast
10:19 AM 61.0 °F 57.9 °F 90% 30.25 in 10.0 mi Variable 4.6 mph - N/A   Overcast
10:52 AM 60.1 °F 55.9 °F 86% 30.26 in 10.0 mi NNE 6.9 mph - N/A   Overcast
11:29 AM 61.0 °F 55.9 °F 83% 30.26 in 10.0 mi NNE 5.8 mph - N/A   Mostly Cloudy
11:52 AM 62.1 °F 55.0 °F 78% 30.26 in 10.0 mi NE 6.9 mph - N/A   Overcast
12:52 PM 61.0 °F 53.1 °F 75% 30.24 in 10.0 mi NNE 8.1 mph - N/A   Clear
1:52 PM 61.0 °F 54.0 °F 78% 30.23 in 10.0 mi Variable 6.9 mph - N/A   Clear
2:52 PM 60.1 °F 54.0 °F 80% 30.23 in 10.0 mi NNE 6.9 mph - N/A   Mostly Cloudy
3:52 PM 60.1 °F 55.0 °F 83% 30.22 in 10.0 mi NE 9.2 mph - N/A   Overcast
4:52 PM 60.1 °F 55.0 °F 83% 30.23 in 10.0 mi NE 8.1 mph - N/A   Clear
5:52 PM 60.1 °F 55.0 °F 83% 30.24 in 10.0 mi NE 10.4 mph - N/A   Clear
6:52 PM 60.1 °F 55.0 °F 83% 30.24 in 10.0 mi NE 9.2 mph - N/A   Clear
7:52 PM 59.0 °F 55.0 °F 87% 30.24 in 10.0 mi NE 11.5 mph 18.4 mph N/A   Clear
8:52 PM 60.1 °F 52.0 °F 75% 30.24 in 10.0 mi NE 10.4 mph - N/A   Scattered Clouds
9:52 PM 60.1 °F 53.1 °F 78% 30.26 in 10.0 mi NE 10.4 mph 20.7 mph N/A   Overcast
10:52 PM 60.1 °F 52.0 °F 75% 30.25 in 10.0 mi NE 13.8 mph 20.7 mph N/A   Scattered Clouds
11:52 PM 60.1 °F 51.1 °F 72% 30.25 in 10.0 mi NE 11.5 mph 21.9 mph N/A   Mostly Cloudy